Location: Davayat
(45.9471°N, 3.1105°E)
Time: 17:27:11
(UTC+00:00)

Meteor 1-27 Rocket - Pass Details

Date: 01 December 2020
Orbit: 830 x 909 km, 81.3° (Epoch: 17 January)

Event Time Altitude Azimuth Distance (km) Brightness Sun altitude
Rises 18:13:34 0° 172° (S) 3,361 6.8 -21.8°
Reaches altitude 10° 18:16:01 10° 166° (SSE) 2,435 6.0 -22.2°
Enters shadow 18:20:20 43° 123° (ESE) 1,155 4.0 -23.0°
